Orbital Elements at Epoch 2459000.5 (2020-May-31.0) TDB
Reference: JPL 21 (heliocentric ecliptic J2000)
Element | Value | Uncertainty (1-sigma) | Units |
e | .03470321359387721 | 4.5313e-08 | |
a | 3.068179422399589 | 2.1871e-08 | au |
q | 2.961703736559718 | 1.5005e-07 | au |
i | 10.74115517201456 | 4.7664e-06 | deg |
node | 113.3198648396688 | 2.1453e-05 | deg |
peri | 264.8047256776233 | 7.0938e-05 | deg |
M | 284.4622093140504 | 6.8278e-05 | deg |
tp | 2459412.390081390654 (2021-Jul-16.89008139) | 0.00037325 | TDB |
period | 1962.996639882086 5.37 | 2.099e-05 5.747e-08 | d yr |
n | .1833930800929056 | 1.9609e-09 | deg/d |
Q | 3.174655108239461 | 2.263e-08 | au |
|
| | Orbit Determination Parameters
Additional Information
|